When you browse on this site, cookies collect data to enhance your experience and personalize the content and advertising you see.
Visit our Privacy Policy to learn more. By continuing to use the site, you agree to this use of cookies and data.
  • In Österreich
  • Länderverzeichnis
  • Für 7 Tage
  • Wassertemperatur
  • Wetterkarte
  • News
  • Widgets
  • user-avatar
    Anmelden

    Stündliche Wetter Quipile

    Heute, 12 Dezember, Donnerstag

    Zeit Temperatur Niederschläge Wind Luftdruck Luftfeuchtigkeit
    00:00 +13°C° 0.3 mm 1 m/S 596 mmHg 91%
    01:00 +12°C° 0.3 mm 1 m/S 595 mmHg 91%
    02:00 +12°C° 0.3 mm 1 m/S 595 mmHg 91%
    03:00 +12°C° 0.3 mm 1 m/S 595 mmHg 91%
    04:00 +12°C° 0.3 mm 1 m/S 595 mmHg 91%
    05:00 +12°C° 0.1 mm 1 m/S 595 mmHg 91%
    06:00 +13°C° 0.1 mm 1 m/S 596 mmHg 91%
    07:00 +13°C° 0.1 mm 1 m/S 596 mmHg 91%
    08:00 +14°C° 0.1 mm 1 m/S 597 mmHg 89%
    09:00 +14°C° 0.1 mm 1 m/S 597 mmHg 88%
    10:00 +15°C° 0.1 mm 1 m/S 597 mmHg 87%
    11:00 +18°C° 0.1 mm 1 m/S 597 mmHg 78%
    12:00 +20°C° 0.1 mm 1 m/S 597 mmHg 70%
    13:00 +22°C° 0.1 mm 1 m/S 598 mmHg 61%
    14:00 +21°C° 0.5 mm 1 m/S 597 mmHg 67%
    15:00 +20°C° 0.5 mm 1 m/S 596 mmHg 72%
    16:00 +19°C° 0.5 mm 1 m/S 596 mmHg 77%
    17:00 +18°C° 0.6 mm 1 m/S 595 mmHg 82%
    18:00 +15°C° 0.6 mm 1 m/S 595 mmHg 87%
    19:00 +14°C° 0.6 mm 1 m/S 595 mmHg 92%
    20:00 +14°C° 0.2 mm 1 m/S 595 mmHg 91%
    21:00 +13°C° 0.2 mm 1 m/S 596 mmHg 91%
    22:00 +13°C° 0.2 mm 1 m/S 596 mmHg 90%
    23:00 +13°C° 0.1 mm 1 m/S 596 mmHg 90%

    Morgen, 13 Dezember, Freitag

    Zeit Temperatur Niederschläge Wind Luftdruck Luftfeuchtigkeit
    00:00 +13°C° 0.1 mm 1 m/S 595 mmHg 89%
    01:00 +13°C° 0.1 mm 1 m/S 595 mmHg 88%
    02:00 +13°C° 0.1 mm 1 m/S 595 mmHg 88%
    03:00 +13°C° 0.1 mm 1 m/S 595 mmHg 88%
    04:00 +12°C° 0.1 mm 1 m/S 595 mmHg 87%
    05:00 +12°C° 0.2 mm 0 m/S 595 mmHg 87%
    06:00 +12°C° 0.2 mm 0 m/S 595 mmHg 86%
    07:00 +12°C° 0.2 mm 0 m/S 596 mmHg 85%
    08:00 +15°C° 0 mm 1 m/S 597 mmHg 79%
    09:00 +18°C° 0 mm 1 m/S 598 mmHg 73%
    10:00 +20°C° 0 mm 1 m/S 599 mmHg 67%
    11:00 +20°C° 0.3 mm 1 m/S 598 mmHg 69%
    12:00 +20°C° 0.3 mm 1 m/S 597 mmHg 71%
    13:00 +20°C° 0.3 mm 1 m/S 597 mmHg 73%
    14:00 +20°C° 0.7 mm 1 m/S 596 mmHg 74%
    15:00 +20°C° 0.7 mm 1 m/S 596 mmHg 76%
    16:00 +20°C° 0.7 mm 1 m/S 596 mmHg 77%
    17:00 +18°C° 0.7 mm 1 m/S 596 mmHg 81%
    18:00 +16°C° 0.7 mm 1 m/S 595 mmHg 85%
    19:00 +15°C° 0.7 mm 1 m/S 595 mmHg 89%
    20:00 +14°C° 0.8 mm 1 m/S 596 mmHg 90%
    21:00 +14°C° 0.8 mm 1 m/S 596 mmHg 90%
    22:00 +14°C° 0.8 mm 1 m/S 597 mmHg 91%
    23:00 +14°C° 0.9 mm 1 m/S 596 mmHg 92%

    übermorgen, 14 Dezember, Samstag

    Zeit Temperatur Niederschläge Wind Luftdruck Luftfeuchtigkeit
    00:00 +13°C° 0.9 mm 1 m/S 596 mmHg 93%
    01:00 +13°C° 0.9 mm 1 m/S 595 mmHg 94%
    02:00 +13°C° 1.4 mm 1 m/S 595 mmHg 95%
    03:00 +13°C° 1.4 mm 1 m/S 595 mmHg 96%
    04:00 +13°C° 1.4 mm 1 m/S 595 mmHg 97%
    05:00 +13°C° 1.1 mm 1 m/S 596 mmHg 97%
    06:00 +12°C° 1.1 mm 0 m/S 596 mmHg 97%
    07:00 +12°C° 1.1 mm 0 m/S 596 mmHg 96%
    08:00 +13°C° 0.3 mm 0 m/S 597 mmHg 90%
    09:00 +16°C° 0.3 mm 1 m/S 598 mmHg 84%
    10:00 +18°C° 0.3 mm 1 m/S 599 mmHg 77%
    11:00 +19°C° 0.4 mm 1 m/S 598 mmHg 75%
    12:00 +19°C° 0.4 mm 1 m/S 598 mmHg 74%
    13:00 +20°C° 0.4 mm 1 m/S 598 mmHg 72%
    14:00 +20°C° 0.4 mm 1 m/S 597 mmHg 74%
    15:00 +19°C° 0.4 mm 1 m/S 597 mmHg 75%
    16:00 +19°C° 0.4 mm 1 m/S 596 mmHg 77%
    17:00 +18°C° 0.6 mm 1 m/S 596 mmHg 82%
    18:00 +15°C° 0.6 mm 1 m/S 596 mmHg 86%
    19:00 +13°C° 0.6 mm 0 m/S 596 mmHg 90%
    20:00 +14°C° 0.7 mm 1 m/S 596 mmHg 90%
    21:00 +14°C° 0.7 mm 1 m/S 597 mmHg 90%
    22:00 +13°C° 0.7 mm 1 m/S 597 mmHg 90%
    23:00 +13°C° 0.5 mm 1 m/S 597 mmHg 91%

    15 Dezember, Sonntag

    Zeit Temperatur Niederschläge Wind Luftdruck Luftfeuchtigkeit
    00:00 +13°C° 0.5 mm 1 m/S 596 mmHg 92%
    01:00 +12°C° 0.5 mm 0 m/S 596 mmHg 92%
    02:00 +12°C° 0.6 mm 0 m/S 596 mmHg 93%
    03:00 +12°C° 0.6 mm 0 m/S 596 mmHg 94%
    04:00 +12°C° 0.6 mm 0 m/S 596 mmHg 94%
    05:00 +12°C° 0.4 mm 0 m/S 596 mmHg 94%
    06:00 +12°C° 0.4 mm 0 m/S 597 mmHg 94%
    07:00 +12°C° 0.4 mm 0 m/S 597 mmHg 94%
    08:00 +13°C° 0.3 mm 0 m/S 598 mmHg 91%
    09:00 +16°C° 0.3 mm 1 m/S 598 mmHg 88%
    10:00 +18°C° 0.3 mm 1 m/S 599 mmHg 84%
    11:00 +18°C° 0.9 mm 1 m/S 598 mmHg 82%
    12:00 +19°C° 0.9 mm 1 m/S 598 mmHg 80%
    13:00 +19°C° 0.9 mm 1 m/S 597 mmHg 78%
    14:00 +19°C° 1.1 mm 1 m/S 597 mmHg 79%
    15:00 +19°C° 1.1 mm 1 m/S 597 mmHg 79%
    16:00 +19°C° 1.1 mm 1 m/S 596 mmHg 79%
    17:00 +18°C° 0.6 mm 1 m/S 596 mmHg 84%
    18:00 +15°C° 0.6 mm 1 m/S 596 mmHg 88%
    19:00 +14°C° 0.6 mm 1 m/S 596 mmHg 92%
    20:00 +14°C° 1 mm 1 m/S 596 mmHg 92%
    21:00 +14°C° 1 mm 1 m/S 597 mmHg 92%
    22:00 +13°C° 1 mm 1 m/S 597 mmHg 92%
    23:00 +13°C° 0.5 mm 1 m/S 597 mmHg 92%

    16 Dezember, Montag

    Zeit Temperatur Niederschläge Wind Luftdruck Luftfeuchtigkeit
    00:00 +13°C° 0.5 mm 1 m/S 596 mmHg 93%
    01:00 +13°C° 0.5 mm 1 m/S 596 mmHg 93%
    02:00 +13°C° 0.3 mm 1 m/S 596 mmHg 93%
    03:00 +13°C° 0.3 mm 1 m/S 595 mmHg 94%
    04:00 +12°C° 0.3 mm 1 m/S 595 mmHg 94%
    05:00 +12°C° 0.1 mm 0 m/S 596 mmHg 94%
    06:00 +12°C° 0.1 mm 0 m/S 596 mmHg 93%
    07:00 +12°C° 0.1 mm 0 m/S 597 mmHg 92%
    08:00 +14°C° 0.1 mm 0 m/S 598 mmHg 86%
    09:00 +18°C° 0.1 mm 1 m/S 598 mmHg 80%
    10:00 +19°C° 0.1 mm 1 m/S 599 mmHg 74%
    11:00 +20°C° 0.5 mm 1 m/S 598 mmHg 74%
    12:00 +20°C° 0.5 mm 1 m/S 598 mmHg 74%
    13:00 +20°C° 0.5 mm 1 m/S 597 mmHg 74%
    14:00 +20°C° 0.5 mm 1 m/S 597 mmHg 75%
    15:00 +20°C° 0.5 mm 1 m/S 596 mmHg 75%
    16:00 +20°C° 0.5 mm 1 m/S 595 mmHg 76%
    17:00 +18°C° 0.8 mm 1 m/S 595 mmHg 81%
    18:00 +16°C° 0.8 mm 1 m/S 595 mmHg 86%
    19:00 +15°C° 0.8 mm 1 m/S 595 mmHg 90%
    20:00 +14°C° 1 mm 1 m/S 595 mmHg 91%
    21:00 +14°C° 1 mm 1 m/S 596 mmHg 91%
    22:00 +14°C° 1 mm 1 m/S 596 mmHg 91%
    23:00 +13°C° 0.7 mm 1 m/S 596 mmHg 91%

    17 Dezember, Dienstag

    Zeit Temperatur Niederschläge Wind Luftdruck Luftfeuchtigkeit
    00:00 +13°C° 0.7 mm 1 m/S 595 mmHg 92%
    01:00 +13°C° 0.7 mm 1 m/S 595 mmHg 92%
    02:00 +13°C° 0.6 mm 1 m/S 595 mmHg 92%
    03:00 +12°C° 0.6 mm 0 m/S 595 mmHg 93%
    04:00 +12°C° 0.6 mm 0 m/S 594 mmHg 93%
    05:00 +12°C° 0.1 mm 0 m/S 595 mmHg 92%
    06:00 +12°C° 0.1 mm 0 m/S 595 mmHg 92%
    07:00 +12°C° 0.1 mm 0 m/S 596 mmHg 91%
    08:00 +15°C° 0.1 mm 1 m/S 596 mmHg 86%
    09:00 +18°C° 0.1 mm 1 m/S 597 mmHg 81%
    10:00 +19°C° 0.1 mm 1 m/S 598 mmHg 75%
    11:00 +20°C° 0.3 mm 1 m/S 597 mmHg 75%
    12:00 +20°C° 0.3 mm 1 m/S 597 mmHg 74%
    13:00 +21°C° 0.3 mm 1 m/S 596 mmHg 73%
    14:00 +21°C° 0.5 mm 1 m/S 596 mmHg 74%
    15:00 +20°C° 0.5 mm 1 m/S 595 mmHg 75%
    16:00 +20°C° 0.5 mm 1 m/S 595 mmHg 75%
    17:00 +19°C° 0.7 mm 1 m/S 595 mmHg 80%
    18:00 +16°C° 0.7 mm 1 m/S 595 mmHg 85%
    19:00 +15°C° 0.7 mm 1 m/S 595 mmHg 90%
    20:00 +15°C° 1 mm 1 m/S 595 mmHg 90%
    21:00 +14°C° 1 mm 1 m/S 595 mmHg 91%
    22:00 +14°C° 1 mm 1 m/S 595 mmHg 91%
    23:00 +13°C° 0.9 mm 1 m/S 595 mmHg 91%
    Mehr zeigen